Overview Statistics Trail Chart Weather Telemetry Raw packets
 

This is the latest recevied weather packets stored in our database for station/object K4KMJ. If no packets are shown the sender has not sent any weather packets the latest 10 day(s).

<< 5 6 7 8 9 10 11 >>
Time Temp. Humidity Pressure Rain* Wind** Luminosity Snow
1788627836 32.78° C 76% 1015.9 hPa 0 mm - 749 W/m² -
1788627535 32.22° C 79% 1015.9 hPa 0 mm - 922 W/m² -
1788627230 31.67° C 81% 1016.1 hPa 0 mm - 174 W/m² -
1788626930 32.22° C 83% 1016.1 hPa 0 mm - 160 W/m² -
1788626625 32.22° C 84% 1016.2 hPa 0 mm - 810 W/m² -
1788626320 31.67° C 87% 1016 hPa 0 mm - 638 W/m² -
1788626017 31.67° C 87% 1016.3 hPa 0 mm - 558 W/m² -
1788625713 31.11° C 89% 1016.6 hPa 0 mm - 581 W/m² -
1788625406 30.56° C 90% 1016.6 hPa 0 mm - 572 W/m² -
1788625101 30.56° C 93% 1016.5 hPa 0 mm - 838 W/m² -
1788624800 30.56° C 96% 1016.6 hPa 0 mm - 852 W/m² -
1788624498 30° C 98% 1016.8 hPa 0 mm - 345 W/m² -
1788624222 30° C 99% 1017 hPa 0 mm - 514 W/m² -
1788623888 28.89° C 99% 1016.7 hPa 0 mm - 320 W/m² -
1788623587 28.89° C 99% 1016.7 hPa 0 mm - 359 W/m² -
1788623281 29.44° C 99% 1016.9 hPa 0 mm - 360 W/m² -
1788622977 29.44° C 99% 1017.1 hPa 0 mm - 539 W/m² -
1788622672 28.33° C 99% 1017.2 hPa 0 mm - 474 W/m² -
1788622368 28.33° C 99% 1017 hPa 0 mm - 349 W/m² -
1788622063 28.33° C 99% 1017.1 hPa 0 mm - 337 W/m² -
1788621757 27.78° C 99% 1017.3 hPa 0 mm - 296 W/m² -
1788621456 27.78° C 99% 1017.3 hPa 0 mm - 314 W/m² -
1788621153 27.22° C 99% 1017.3 hPa 0 mm - 309 W/m² -
1788620852 27.22° C 99% 1017.4 hPa 0 mm - 293 W/m² -
1788620552 27.22° C 99% 1017.5 hPa 0 mm - 290 W/m² -

* Rain latest hour (hover to see other rain measurements)
** Current wind speed in m/s (hover to see current wind gust speed)